ASA367 KSAN-KLAX

Flight info

Callsign ASA367
Flight time 0h 22m
Altitude 10000
Route CWARD2 SLI
Aircraft B38M/M-SDE1FGHILORVWXY/HB1

Departure

Time 2026-05-07 03:51
Airport San Diego International Airport (KSAN)

Arrival

Time 2026-05-07 04:13
Airport Los Angeles International Airport (KLAX)
Time Latitude Longitude Altitude Speed Heading
2026-05-07 03:36 32.73411 -117.20117 27 ft 0 kts 165°
2026-05-07 03:42 32.73423 -117.20121 29 ft 3 kts 165°
2026-05-07 03:43 32.73441 -117.20126 27 ft 3 kts 165°
2026-05-07 03:43 32.73459 -117.20132 28 ft 3 kts 165°
2026-05-07 03:43 32.73476 -117.20137 28 ft 3 kts 165°
2026-05-07 03:43 32.73491 -117.20148 29 ft 3 kts 105°
2026-05-07 03:44 32.73492 -117.20150 29 ft 0 kts 94°
2026-05-07 03:45 32.73492 -117.20149 29 ft 1 kts 94°
2026-05-07 03:46 32.73491 -117.20140 31 ft 2 kts 93°
2026-05-07 03:46 32.73490 -117.20099 30 ft 8 kts 91°
2026-05-07 03:46 32.73492 -117.20002 27 ft 15 kts 89°
2026-05-07 03:46 32.73469 -117.19862 28 ft 20 kts 105°
2026-05-07 03:47 32.73424 -117.19672 27 ft 28 kts 105°
2026-05-07 03:47 32.73365 -117.19425 27 ft 34 kts 105°
2026-05-07 03:47 32.73296 -117.19138 29 ft 37 kts 106°
2026-05-07 03:47 32.73229 -117.18862 28 ft 33 kts 107°
2026-05-07 03:48 32.73187 -117.18693 33 ft 32 kts 106°
2026-05-07 03:48 32.73125 -117.18441 30 ft 31 kts 106°
2026-05-07 03:48 32.73045 -117.18109 27 ft 32 kts 105°
2026-05-07 03:48 32.72990 -117.17879 28 ft 28 kts 105°
2026-05-07 03:49 32.72958 -117.17746 25 ft 18 kts 102°
2026-05-07 03:49 32.72956 -117.17719 26 ft 0 kts 95°
2026-05-07 03:49 32.72956 -117.17714 27 ft 4 kts 91°
2026-05-07 03:50 32.72975 -117.17659 28 ft 6 kts 34°
2026-05-07 03:50 32.73010 -117.17659 28 ft 5 kts 342°
2026-05-07 03:50 32.73107 -117.17897 29 ft 72 kts 285°
2026-05-07 03:50 32.73309 -117.18761 30 ft 142 kts 288°
2026-05-07 03:51 32.73611 -117.20090 241 ft 184 kts 286°
2026-05-07 03:51 32.73958 -117.21638 924 ft 201 kts 287°
2026-05-07 03:51 32.74329 -117.23274 1666 ft 209 kts 287°
2026-05-07 03:51 32.74706 -117.24917 2354 ft 204 kts 289°
2026-05-07 03:52 32.75603 -117.26272 2449 ft 217 kts 324°
2026-05-07 03:52 32.76844 -117.27310 2713 ft 224 kts 323°
2026-05-07 03:52 32.78025 -117.28556 2969 ft 231 kts 313°
2026-05-07 03:52 32.79007 -117.30099 3224 ft 237 kts 304°
2026-05-07 03:53 32.79909 -117.31730 3632 ft 233 kts 308°
2026-05-07 03:53 32.80914 -117.33223 4136 ft 229 kts 308°
2026-05-07 03:53 32.81846 -117.34743 4611 ft 227 kts 307°
2026-05-07 03:53 32.82785 -117.36235 5095 ft 225 kts 309°
2026-05-07 03:54 32.83737 -117.37701 5563 ft 226 kts 309°
2026-05-07 03:54 32.84760 -117.39272 5992 ft 255 kts 310°
2026-05-07 03:54 32.85897 -117.41033 6478 ft 281 kts 310°
2026-05-07 03:54 32.87138 -117.42964 6960 ft 306 kts 310°
2026-05-07 03:55 32.88483 -117.45057 7456 ft 330 kts 310°
2026-05-07 03:55 32.89923 -117.47293 7971 ft 351 kts 310°
2026-05-07 03:55 32.91452 -117.49669 8500 ft 372 kts 310°
2026-05-07 03:55 32.93062 -117.52175 9032 ft 391 kts 310°
2026-05-07 03:56 32.94749 -117.54803 9512 ft 409 kts 310°
2026-05-07 03:56 32.96449 -117.57463 9960 ft 398 kts 310°
2026-05-07 03:56 32.98087 -117.60025 9847 ft 378 kts 311°
2026-05-07 03:56 32.99629 -117.62434 9907 ft 355 kts 311°
2026-05-07 03:57 33.01130 -117.64767 9966 ft 355 kts 311°
2026-05-07 03:57 33.02904 -117.66699 10026 ft 342 kts 335°
2026-05-07 03:57 33.05075 -117.67744 10084 ft 339 kts 344°
2026-05-07 03:57 33.07307 -117.68641 10083 ft 338 kts 344°
2026-05-07 03:58 33.09505 -117.69669 10082 ft 339 kts 340°
2026-05-07 03:58 33.11652 -117.70849 10082 ft 340 kts 338°
2026-05-07 03:58 33.13802 -117.72011 10084 ft 339 kts 340°
2026-05-07 03:58 33.15967 -117.73106 10082 ft 337 kts 341°
2026-05-07 03:59 33.18209 -117.74229 10096 ft 360 kts 340°
2026-05-07 03:59 33.20506 -117.75417 10100 ft 360 kts 339°
2026-05-07 03:59 33.22807 -117.76623 10098 ft 362 kts 339°
2026-05-07 03:59 33.25119 -117.77818 10098 ft 362 kts 340°
2026-05-07 04:00 33.27438 -117.79008 10094 ft 362 kts 340°
2026-05-07 04:00 33.29753 -117.80203 10097 ft 363 kts 339°
2026-05-07 04:00 33.32066 -117.81402 10099 ft 362 kts 339°
2026-05-07 04:00 33.34356 -117.82588 10097 ft 363 kts 340°
2026-05-07 04:01 33.36674 -117.83787 10088 ft 363 kts 340°
2026-05-07 04:01 33.38992 -117.84987 10090 ft 363 kts 339°
2026-05-07 04:01 33.41307 -117.86188 10094 ft 363 kts 339°
2026-05-07 04:01 33.43622 -117.87389 10087 ft 362 kts 340°
2026-05-07 04:02 33.45943 -117.88593 10089 ft 363 kts 340°
2026-05-07 04:02 33.48265 -117.89798 9870 ft 364 kts 340°
2026-05-07 04:02 33.50570 -117.90997 9472 ft 357 kts 340°
2026-05-07 04:02 33.52818 -117.92168 9084 ft 347 kts 339°
2026-05-07 04:03 33.54960 -117.93284 8633 ft 325 kts 339°
2026-05-07 04:03 33.56980 -117.94334 8110 ft 312 kts 339°
2026-05-07 04:03 33.58970 -117.95366 7610 ft 311 kts 339°
2026-05-07 04:03 33.60958 -117.96400 7057 ft 313 kts 339°
2026-05-07 04:04 33.62973 -117.97412 6486 ft 314 kts 342°
2026-05-07 04:04 33.65009 -117.98282 6125 ft 308 kts 337°
2026-05-07 04:04 33.66914 -117.99401 6096 ft 305 kts 334°
2026-05-07 04:04 33.68815 -118.00545 6098 ft 305 kts 336°
2026-05-07 04:05 33.70759 -118.01561 6096 ft 305 kts 339°
2026-05-07 04:05 33.72718 -118.02531 6096 ft 304 kts 338°
2026-05-07 04:05 33.74663 -118.03538 6095 ft 305 kts 337°
2026-05-07 04:05 33.76601 -118.04568 6063 ft 304 kts 337°
2026-05-07 04:06 33.78541 -118.05588 6063 ft 304 kts 339°
2026-05-07 04:06 33.80593 -118.06022 6062 ft 302 kts
2026-05-07 04:06 33.82680 -118.05773 6063 ft 301 kts
2026-05-07 04:06 33.84720 -118.05352 6044 ft 302 kts 11°
2026-05-07 04:07 33.86835 -118.04864 5482 ft 308 kts 11°
2026-05-07 04:07 33.88916 -118.04357 4913 ft 311 kts 11°
2026-05-07 04:07 33.91046 -118.03825 4298 ft 314 kts 11°
2026-05-07 04:07 33.93190 -118.03287 3700 ft 316 kts 11°
2026-05-07 04:08 33.95364 -118.02964 3207 ft 314 kts
2026-05-07 04:08 33.97445 -118.03444 3099 ft 298 kts 335°
2026-05-07 04:08 33.99071 -118.04910 3097 ft 289 kts 309°
2026-05-07 04:08 34.00079 -118.06920 3094 ft 273 kts 295°
2026-05-07 04:09 34.00766 -118.08944 3111 ft 242 kts 284°
2026-05-07 04:09 34.00712 -118.10905 3106 ft 242 kts 254°
2026-05-07 04:09 33.99954 -118.12702 3096 ft 240 kts 242°
2026-05-07 04:09 33.99310 -118.14566 3109 ft 241 kts 251°
2026-05-07 04:10 33.98749 -118.16459 3112 ft 240 kts 250°
2026-05-07 04:10 33.98118 -118.18304 3107 ft 239 kts 247°
2026-05-07 04:10 33.97444 -118.20127 3019 ft 239 kts 246°
2026-05-07 04:10 33.96775 -118.21963 2462 ft 235 kts 247°
2026-05-07 04:11 33.96134 -118.23760 2134 ft 234 kts 247°
2026-05-07 04:11 33.95488 -118.25568 2119 ft 236 kts 247°
2026-05-07 04:11 33.94870 -118.27399 2021 ft 236 kts 254°
2026-05-07 04:11 33.94622 -118.29333 2019 ft 236 kts 264°
2026-05-07 04:12 33.94444 -118.31296 1781 ft 238 kts 264°
2026-05-07 04:12 33.94259 -118.33249 1200 ft 231 kts 263°
2026-05-07 04:12 33.94081 -118.35141 730 ft 222 kts 263°
2026-05-07 04:12 33.93881 -118.36942 386 ft 210 kts 263°
2026-05-07 04:13 33.93706 -118.38569 152 ft 181 kts 263°
2026-05-07 04:13 33.93586 -118.39778 124 ft 81 kts 264°
2026-05-07 04:13 33.93573 -118.39920 121 ft 0 kts 264°